Location: Shepherdstown, WV
(39.4326°N, 77.8042°W)
Time: 05:43:32
(UTC-04:00)

Vanguard 3 - Pass Details

Date: 08 August 2021
Orbit: 510 x 3260 km, 33.3° (Epoch: 21 September)

Event Time Altitude Azimuth Distance (km) Brightness Sun altitude
Rises 23:52:47 0° 281° (W) 6,715 12.3 -31.1°
Reaches altitude 10° 23:57:51 10° 272° (W) 5,944 11.8 -31.5°
Maximum altitude 00:12:58 30° 221° (SW) 4,683 10.7 -32.5°
Enters shadow 00:16:01 29° 207° (SSW) 4,708 10.6 -32.7°
Drops below altitude 10° 00:27:36 10° 168° (SSE) 5,678 - -33.3°
Sets 00:32:23 0° 158° (SSE) 6,377 - -33.5°
